小惑星2008 HW1

2008 HW1

English version
Home page
Total 6,336 html files since Dec. 4, 1995
Updated on May 25, 2008

---------------------------------------------------------------------

・ プロフィール

発見日 2008年4月25日
発見光度 17.3等
発見者 Lincoln Laboratory Near-Earth Asteroid Research project

・ 軌道要素

The following orbital elements are taken from MPEC 2008-K26:

Epoch 2008 May 14.0 TT = JDT 2454600.5                  MPC
M 351.89554              (2000.0)            P               Q
n   0.23733382     Peri.  248.86454     +0.93798779     -0.31598751
a   2.5836259      Node   129.26776     +0.34459773     +0.89475402
e   0.9605849      Incl.   10.61292     -0.03783255     +0.31554261
P   4.15           H   17.5           G   0.15           U   5
From 224 observations 2008 Mar. 30-May 12, mean residual 0".30.

・ 星図

・ 光度変化

        H = 17.4  G = 0.15

---------------------------------------------------------------------

軌道要素はMPCのEphemerides and Orbital Elementsに掲載されたものです。
星図はステラナビゲータ Ver.8 (アストロアーツ) で作成したものです。
光度グラフはComet for Windowsで作成したものです。

---------------------------------------------------------------------

Copyright(C) 1995-2008 Seiichi Yoshida (comet@aerith.net). All rights reserved.